Location: Newark
(34.5992°S, 58.3747°W)
Time: 09:49:31
(UTC+00:00)

STARLINK 1028 - Pass Details

Date: 09 December 2019
Orbit: 348 x 351 km, 53.0° (Epoch: 26 January)

Event Time Altitude Azimuth Distance (km) Brightness Sun altitude
Rises 23:20:51 0° 243° (WSW) 2,239 9.5 -4.9°
Reaches altitude 10° 23:23:21 10° 265° (W) 1,391 6.9 -5.3°
Maximum altitude 23:25:26 17° 307° (NW) 1,068 5.4 -5.7°
Drops below altitude 10° 23:27:32 10° 349° (N) 1,397 5.5 -6.0°
Enters shadow 23:29:59 - 10° (N) 2,220 6.3 -6.4°
